DLH82B EDDM-LPPR

Flight info

Callsign DLH82B
Flight time 2h 30m
Altitude 39000
Route ALG2S/26L ALG Y109 UMTEX Y100 TRA DCT LUTIX DCT BENOT DCT NEMOS DCT NINTU DCT MEBAK DCT REPSI DCT LERGA DCT MINSO DCT NARAK DCT AGN DCT PIPOR L866 PPN N976 ZMR L155 ADORO DCT INKIT
Aircraft A346/H-SDE2E3FGHIJ3J4J5M1RWXY/LB1D1

Departure

Time 2026-05-04 07:38
Airport Munich Airport (EDDM)

Arrival

Time 2026-05-04 10:08
Airport Francisco de Sá Carneiro Airport (LPPR)
Time Latitude Longitude Altitude Speed Heading
2026-05-04 07:16 48.35469 11.79733 1494 ft 0 kts 83°
2026-05-04 07:27 48.35467 11.79706 1494 ft 4 kts 83°
2026-05-04 07:27 48.35463 11.79666 1494 ft 4 kts 83°
2026-05-04 07:27 48.35461 11.79635 1477 ft 4 kts 90°
2026-05-04 07:28 48.35465 11.79603 1477 ft 4 kts 119°
2026-05-04 07:28 48.35474 11.79587 1477 ft 4 kts 163°
2026-05-04 07:28 48.35497 11.79582 1481 ft 4 kts 173°
2026-05-04 07:28 48.35519 11.79579 1494 ft 0 kts 173°
2026-05-04 07:31 48.35494 11.79583 1489 ft 11 kts 173°
2026-05-04 07:33 48.34834 11.80119 1484 ft 22 kts 83°
2026-05-04 07:33 48.34816 11.80337 1482 ft 19 kts 128°
2026-05-04 07:33 48.34716 11.80401 1491 ft 15 kts 172°
2026-05-04 07:33 48.34600 11.80419 1485 ft 18 kts 182°
2026-05-04 07:34 48.34486 11.80328 1480 ft 17 kts 232°
2026-05-04 07:34 48.34462 11.80213 1487 ft 0 kts 261°
2026-05-04 07:35 48.34457 11.80162 1494 ft 24 kts 262°
2026-05-04 07:36 48.34410 11.79528 1483 ft 95 kts 264°
2026-05-04 07:36 48.34312 11.78229 1494 ft 153 kts 263°
2026-05-04 07:38 48.33228 11.63921 5013 ft 244 kts 264°
2026-05-04 07:38 48.33034 11.61278 5464 ft 263 kts 264°
2026-05-04 07:38 48.32832 11.58465 6036 ft 277 kts 264°
2026-05-04 07:38 48.32624 11.55570 6894 ft 278 kts 263°
2026-05-04 07:39 48.32416 11.52683 7853 ft 277 kts 263°
2026-05-04 07:39 48.32204 11.49791 8774 ft 279 kts 262°
2026-05-04 07:39 48.31988 11.46875 9693 ft 281 kts 262°
2026-05-04 07:39 48.31769 11.43930 10577 ft 284 kts 261°
2026-05-04 07:40 48.31545 11.40959 11477 ft 286 kts 261°
2026-05-04 07:40 48.31319 11.37975 12371 ft 289 kts 261°
2026-05-04 07:40 48.31092 11.34985 13305 ft 291 kts 261°
2026-05-04 07:40 48.30855 11.31938 14195 ft 294 kts 258°
2026-05-04 07:41 48.30353 11.28952 15009 ft 295 kts 248°
2026-05-04 07:41 48.29469 11.26122 15693 ft 305 kts 239°
2026-05-04 07:41 48.28342 11.23356 16209 ft 315 kts 237°
2026-05-04 07:41 48.27144 11.20525 16866 ft 326 kts 237°
2026-05-04 07:42 48.25890 11.17574 17267 ft 344 kts 237°
2026-05-04 07:42 48.24569 11.14449 17625 ft 363 kts 237°
2026-05-04 07:42 48.23185 11.11161 18133 ft 375 kts 237°
2026-05-04 07:42 48.21778 11.07818 18722 ft 378 kts 238°
2026-05-04 07:43 48.20366 11.04465 18999 ft 380 kts 238°
2026-05-04 07:43 48.18950 11.01102 19042 ft 380 kts 238°
2026-05-04 07:43 48.17533 10.97740 19048 ft 380 kts 238°
2026-05-04 07:43 48.16135 10.94429 19049 ft 380 kts 238°
2026-05-04 07:44 48.14714 10.91069 19051 ft 380 kts 238°
2026-05-04 07:44 48.13285 10.87696 19048 ft 380 kts 238°
2026-05-04 07:44 48.11876 10.84338 19047 ft 381 kts 239°
2026-05-04 07:44 48.10628 10.80826 19049 ft 381 kts 244°
2026-05-04 07:45 48.09610 10.77164 19048 ft 381 kts 250°
2026-05-04 07:45 48.08810 10.73378 19049 ft 382 kts 253°
2026-05-04 07:45 48.08075 10.69549 19057 ft 382 kts 253°
2026-05-04 07:45 48.07350 10.65717 19053 ft 381 kts 253°
2026-05-04 07:46 48.06633 10.61939 19052 ft 381 kts 253°
2026-05-04 07:46 48.05903 10.58117 19049 ft 381 kts 253°
2026-05-04 07:46 48.05172 10.54302 19049 ft 381 kts 253°
2026-05-04 07:46 48.04437 10.50481 19046 ft 382 kts 253°
2026-05-04 07:47 48.03692 10.46615 19320 ft 391 kts 253°
2026-05-04 07:47 48.02936 10.42704 20171 ft 390 kts 253°
2026-05-04 07:47 48.02177 10.38790 21021 ft 392 kts 253°
2026-05-04 07:49 47.95880 10.10775 25738 ft 416 kts 249°
2026-05-04 07:49 47.94874 10.06766 26355 ft 418 kts 249°
2026-05-04 07:49 47.93849 10.02683 26966 ft 421 kts 249°
2026-05-04 07:50 47.92816 9.98572 27573 ft 424 kts 249°
2026-05-04 07:50 47.91772 9.94428 28178 ft 427 kts 249°
2026-05-04 07:50 47.90720 9.90258 28778 ft 429 kts 249°
2026-05-04 07:50 47.89662 9.86071 29357 ft 432 kts 248°
2026-05-04 07:51 47.88599 9.81856 29938 ft 435 kts 249°
2026-05-04 07:51 47.87542 9.77613 30433 ft 438 kts 249°
2026-05-04 07:51 47.86479 9.73340 30982 ft 439 kts 248°
2026-05-04 07:51 47.85777 9.70516 31461 ft 436 kts 248°
2026-05-04 07:52 47.84486 9.64886 32522 ft 430 kts 251°
2026-05-04 07:52 47.83681 9.60602 33298 ft 426 kts 254°
2026-05-04 07:52 47.83230 9.57754 33800 ft 424 kts 256°
2026-05-04 07:52 47.82666 9.53442 34441 ft 421 kts 257°
2026-05-04 07:53 47.82145 9.49148 34975 ft 420 kts 257°
2026-05-04 07:54 47.78457 9.18902 37681 ft 428 kts 258°
2026-05-04 07:55 47.77916 9.14523 37955 ft 430 kts 258°
2026-05-04 07:55 47.77372 9.10128 38206 ft 433 kts 258°
2026-05-04 07:55 47.76825 9.05716 38482 ft 435 kts 258°
2026-05-04 07:55 47.76272 9.01278 38727 ft 437 kts 258°
2026-05-04 07:56 47.75715 8.96817 38916 ft 438 kts 258°
2026-05-04 07:56 47.75155 8.92342 39031 ft 440 kts 258°
2026-05-04 07:56 47.74027 8.83365 39047 ft 440 kts 258°
2026-05-04 07:57 47.72907 8.74520 39044 ft 438 kts 258°
2026-05-04 07:57 47.71776 8.65666 39052 ft 438 kts 258°
2026-05-04 07:58 47.70602 8.56758 39043 ft 438 kts 255°
2026-05-04 07:58 47.68867 8.48085 39046 ft 436 kts 248°
2026-05-04 07:59 47.66431 8.39889 39057 ft 435 kts 242°
2026-05-04 07:59 47.63312 8.32194 39055 ft 433 kts 234°
2026-05-04 08:00 47.59779 8.24877 39050 ft 433 kts 234°
2026-05-04 08:02 47.45689 7.95980 39050 ft 434 kts 233°
2026-05-04 08:02 47.42139 7.88749 39052 ft 434 kts 233°
2026-05-04 08:03 47.38586 7.81529 39052 ft 433 kts 233°
2026-05-04 08:03 47.35040 7.74342 39050 ft 433 kts 233°
2026-05-04 08:04 47.31498 7.67184 39045 ft 434 kts 233°
2026-05-04 08:04 47.27926 7.59982 39050 ft 434 kts 233°
2026-05-04 08:05 47.24349 7.52787 39054 ft 434 kts 233°
2026-05-04 08:05 47.20771 7.45608 39059 ft 434 kts 233°
2026-05-04 08:06 47.17202 7.38466 39059 ft 436 kts 233°
2026-05-04 08:06 47.13444 7.31437 39053 ft 437 kts 231°
2026-05-04 08:08 46.98243 7.03514 39055 ft 438 kts 231°
2026-05-04 08:11 46.81127 6.72477 39051 ft 434 kts 231°
2026-05-04 08:11 46.75439 6.62246 39043 ft 434 kts 231°
2026-05-04 08:12 46.71622 6.55402 39041 ft 434 kts 231°
2026-05-04 08:12 46.67799 6.48562 39064 ft 434 kts 231°
2026-05-04 08:13 46.63992 6.41770 39049 ft 431 kts 231°
2026-05-04 08:13 46.60194 6.35008 39047 ft 431 kts 231°
2026-05-04 08:14 46.56408 6.28285 39048 ft 431 kts 231°
2026-05-04 08:16 46.41185 6.01413 39055 ft 430 kts 230°
2026-05-04 08:16 46.37368 5.94718 39055 ft 428 kts 230°
2026-05-04 08:17 46.33562 5.88057 39041 ft 428 kts 230°
2026-05-04 08:17 46.29755 5.81406 39047 ft 428 kts 230°
2026-05-04 08:19 46.14565 5.54852 39053 ft 428 kts 233°
2026-05-04 08:20 46.11141 5.47822 39054 ft 427 kts 235°
2026-05-04 08:20 46.07772 5.40817 39048 ft 427 kts 235°
2026-05-04 08:21 46.04373 5.33759 39046 ft 427 kts 235°
2026-05-04 08:21 46.00987 5.26740 39048 ft 426 kts 234°
2026-05-04 08:22 45.97597 5.19729 39053 ft 426 kts 234°
2026-05-04 08:24 45.84083 4.91940 39055 ft 422 kts 234°
2026-05-04 08:24 45.80707 4.85041 39057 ft 422 kts 234°
2026-05-04 08:25 45.77321 4.78140 39054 ft 422 kts 234°
2026-05-04 08:25 45.73946 4.71274 39056 ft 422 kts 234°
2026-05-04 08:27 45.60350 4.43795 39029 ft 423 kts 233°
2026-05-04 08:28 45.56933 4.36924 39040 ft 423 kts 233°
2026-05-04 08:28 45.53508 4.30057 39024 ft 423 kts 233°
2026-05-04 08:29 45.50077 4.23203 39032 ft 424 kts 233°
2026-05-04 08:31 45.36314 3.95880 39027 ft 424 kts 233°
2026-05-04 08:33 45.22540 3.68595 39024 ft 425 kts 233°
2026-05-04 08:35 45.08990 3.41154 39023 ft 424 kts 233°
2026-05-04 08:35 45.05587 3.34310 39030 ft 425 kts 233°
2026-05-04 08:37 44.93668 3.10469 39016 ft 424 kts 233°
2026-05-04 08:38 44.90823 3.04806 39039 ft 424 kts 233°
2026-05-04 08:38 44.87397 2.98003 39018 ft 425 kts 233°
2026-05-04 08:40 44.74374 2.70248 38999 ft 424 kts 235°
2026-05-04 08:41 44.71143 2.63275 39017 ft 424 kts 235°
2026-05-04 08:41 44.67912 2.56316 39004 ft 424 kts 235°
2026-05-04 08:42 44.64675 2.49363 39001 ft 424 kts 235°
2026-05-04 08:42 44.61433 2.42415 38996 ft 424 kts 235°
2026-05-04 08:43 44.58216 2.35538 38992 ft 424 kts 235°
2026-05-04 08:43 44.54983 2.28642 39012 ft 422 kts 235°
2026-05-04 08:44 44.51741 2.21740 38999 ft 423 kts 235°
2026-05-04 08:46 44.38732 1.94223 38975 ft 423 kts 234°
2026-05-04 08:46 44.35475 1.87368 38991 ft 422 kts 234°
2026-05-04 08:47 44.32213 1.80522 38979 ft 422 kts 234°
2026-05-04 08:47 44.28970 1.73723 38979 ft 422 kts 235°
2026-05-04 08:48 44.25795 1.66818 38974 ft 422 kts 236°
2026-05-04 08:48 44.22625 1.59903 38974 ft 422 kts 235°
2026-05-04 08:49 44.19469 1.53043 38973 ft 421 kts 235°
2026-05-04 08:50 44.08185 1.28680 38972 ft 428 kts 235°
2026-05-04 08:51 44.04942 1.21717 38972 ft 428 kts 235°
2026-05-04 08:51 44.01718 1.14810 38946 ft 428 kts 235°
2026-05-04 08:52 43.98443 1.07821 38969 ft 432 kts 235°
2026-05-04 08:52 43.95155 1.00802 38969 ft 433 kts 235°
2026-05-04 08:54 43.82404 0.72436 38973 ft 434 kts 238°
2026-05-04 08:55 43.79304 0.65261 38970 ft 432 kts 238°
2026-05-04 08:55 43.76237 0.58168 38969 ft 432 kts 238°
2026-05-04 09:01 43.43521 -0.16414 38980 ft 433 kts 237°
2026-05-04 09:01 43.40373 -0.23490 38969 ft 431 kts 237°
2026-05-04 09:02 43.37248 -0.30500 38974 ft 431 kts 237°
2026-05-04 09:02 43.34103 -0.37534 38972 ft 431 kts 237°
2026-05-04 09:03 43.30956 -0.44560 38975 ft 431 kts 237°
2026-05-04 09:03 43.27802 -0.51582 38974 ft 431 kts 237°
2026-05-04 09:04 43.24665 -0.58550 38972 ft 431 kts 237°
2026-05-04 09:04 43.21502 -0.65558 38968 ft 431 kts 237°
2026-05-04 09:05 43.18339 -0.72551 38972 ft 431 kts 237°
2026-05-04 09:05 43.15167 -0.79546 38988 ft 432 kts 237°
2026-05-04 09:06 43.11983 -0.86556 38979 ft 433 kts 237°
2026-05-04 09:08 42.99232 -1.14452 38974 ft 430 kts 237°
2026-05-04 09:08 42.96035 -1.21388 38983 ft 430 kts 237°
2026-05-04 09:09 42.92857 -1.28276 38981 ft 431 kts 237°
2026-05-04 09:09 42.89657 -1.35199 38980 ft 430 kts 237°
2026-05-04 09:10 42.86471 -1.42075 38997 ft 431 kts 237°
2026-05-04 09:10 42.83264 -1.48984 38998 ft 431 kts 237°
2026-05-04 09:11 42.80048 -1.55893 39003 ft 432 kts 237°
2026-05-04 09:11 42.76835 -1.62858 39005 ft 434 kts 239°
2026-05-04 09:12 42.74004 -1.70139 39003 ft 435 kts 244°
2026-05-04 09:14 42.66316 -2.01378 38994 ft 436 kts 251°
2026-05-04 09:14 42.64525 -2.09269 38986 ft 436 kts 251°
2026-05-04 09:15 42.62732 -2.17103 38983 ft 436 kts 250°
2026-05-04 09:15 42.60837 -2.24932 38982 ft 436 kts 250°
2026-05-04 09:17 42.52288 -2.59897 38985 ft 432 kts 250°
2026-05-04 09:18 42.50380 -2.67644 39004 ft 432 kts 250°
2026-05-04 09:18 42.48465 -2.75401 38989 ft 433 kts 249°
2026-05-04 09:19 42.46553 -2.83112 38995 ft 434 kts 249°
2026-05-04 09:19 42.44388 -2.90747 38996 ft 432 kts 244°
2026-05-04 09:20 42.41879 -2.98153 38997 ft 432 kts 244°
2026-05-04 09:20 42.39359 -3.05559 39006 ft 433 kts 244°
2026-05-04 09:21 42.36835 -3.12949 39006 ft 434 kts 244°
2026-05-04 09:21 42.34299 -3.20362 39007 ft 433 kts 244°
2026-05-04 09:22 42.31762 -3.27751 39010 ft 432 kts 244°
2026-05-04 09:22 42.29220 -3.35135 39010 ft 432 kts 244°
2026-05-04 09:23 42.26690 -3.42465 39008 ft 432 kts 244°
2026-05-04 09:23 42.24138 -3.49837 39005 ft 434 kts 244°
2026-05-04 09:25 42.13866 -3.79327 39017 ft 434 kts 243°
2026-05-04 09:26 42.11286 -3.86685 39022 ft 435 kts 243°
2026-05-04 09:26 42.09128 -3.92827 39023 ft 435 kts 243°
2026-05-04 09:27 42.06532 -4.00202 39021 ft 435 kts 243°
2026-05-04 09:27 42.03931 -4.07562 39021 ft 435 kts 243°
2026-05-04 09:28 42.01451 -4.15011 39017 ft 435 kts 245°
2026-05-04 09:28 41.99085 -4.22457 39015 ft 435 kts 245°
2026-05-04 09:29 41.96701 -4.29952 39015 ft 435 kts 245°
2026-05-04 09:29 41.94313 -4.37444 39020 ft 435 kts 245°
2026-05-04 09:30 41.91916 -4.44944 39017 ft 435 kts 245°
2026-05-04 09:30 41.89522 -4.52418 39005 ft 435 kts 245°
2026-05-04 09:31 41.87123 -4.59881 39015 ft 434 kts 245°
2026-05-04 09:31 41.84733 -4.67297 39017 ft 435 kts 245°
2026-05-04 09:32 41.82320 -4.74770 39031 ft 436 kts 245°
2026-05-04 09:34 41.72625 -5.04577 39028 ft 437 kts 245°
2026-05-04 09:34 41.70181 -5.12047 39026 ft 437 kts 245°
2026-05-04 09:35 41.67728 -5.19519 39023 ft 437 kts 245°
2026-05-04 09:35 41.65269 -5.26990 39004 ft 437 kts 245°
2026-05-04 09:37 41.55547 -5.56771 39024 ft 437 kts 249°
2026-05-04 09:38 41.53728 -5.64495 39031 ft 438 kts 254°
2026-05-04 09:38 41.52479 -5.72474 39037 ft 439 kts 260°
2026-05-04 09:39 41.51774 -5.80599 39029 ft 440 kts 263°
2026-05-04 09:39 41.51192 -5.88692 38945 ft 441 kts 263°
2026-05-04 09:40 41.50898 -5.92765 38690 ft 439 kts 263°
2026-05-04 09:40 41.50604 -5.96816 38337 ft 436 kts 263°
2026-05-04 09:40 41.50311 -6.00834 37920 ft 432 kts 263°
2026-05-04 09:40 41.50019 -6.04816 37423 ft 430 kts 263°
2026-05-04 09:41 41.49726 -6.08785 36911 ft 428 kts 263°
2026-05-04 09:42 41.46749 -6.36423 32581 ft 435 kts 257°
2026-05-04 09:43 41.46035 -6.40365 31832 ft 437 kts 257°
2026-05-04 09:43 41.45315 -6.44329 31070 ft 440 kts 257°
2026-05-04 09:43 41.44587 -6.48319 30284 ft 444 kts 257°
2026-05-04 09:43 41.43854 -6.52315 29647 ft 442 kts 258°
2026-05-04 09:44 41.43140 -6.56226 29152 ft 436 kts 258°
2026-05-04 09:44 41.42426 -6.60135 28680 ft 431 kts 258°
2026-05-04 09:44 41.41718 -6.64005 28215 ft 426 kts 258°
2026-05-04 09:46 41.36936 -6.89903 25152 ft 397 kts 258°
2026-05-04 09:46 41.36271 -6.93476 24770 ft 393 kts 258°
2026-05-04 09:46 41.35613 -6.97004 24363 ft 391 kts 258°
2026-05-04 09:47 41.34965 -7.00473 23951 ft 389 kts 258°
2026-05-04 09:47 41.34309 -7.03965 23469 ft 387 kts 259°
2026-05-04 09:49 41.29839 -7.27719 20551 ft 366 kts 258°
2026-05-04 09:49 41.29214 -7.31005 20161 ft 364 kts 258°
2026-05-04 09:49 41.28594 -7.34260 19771 ft 361 kts 258°
2026-05-04 09:51 41.24924 -7.53446 17291 ft 351 kts 258°
2026-05-04 09:51 41.24326 -7.56552 16901 ft 349 kts 258°
2026-05-04 09:51 41.23725 -7.59680 16498 ft 347 kts 257°
2026-05-04 09:51 41.23126 -7.62785 16094 ft 345 kts 257°
2026-05-04 09:52 41.22528 -7.65879 15703 ft 343 kts 257°
2026-05-04 09:52 41.21934 -7.68950 15302 ft 342 kts 257°
2026-05-04 09:52 41.21348 -7.71973 14905 ft 341 kts 257°
2026-05-04 09:52 41.20756 -7.75024 14503 ft 340 kts 257°
2026-05-04 09:53 41.20164 -7.78067 14101 ft 339 kts 257°
2026-05-04 09:53 41.19572 -7.81104 13677 ft 338 kts 257°
2026-05-04 09:53 41.18981 -7.84131 13256 ft 337 kts 257°
2026-05-04 09:53 41.18356 -7.87133 12845 ft 335 kts 254°
2026-05-04 09:54 41.17595 -7.90053 12453 ft 334 kts 251°
2026-05-04 09:54 41.16702 -7.92854 12070 ft 332 kts 248°
2026-05-04 09:54 41.15738 -7.95647 11669 ft 331 kts 248°
2026-05-04 09:54 41.14776 -7.98418 11281 ft 329 kts 247°
2026-05-04 09:55 41.13814 -8.01181 10871 ft 329 kts 247°
2026-05-04 09:55 41.12856 -8.03933 10561 ft 323 kts 248°
2026-05-04 09:55 41.11932 -8.06584 10485 ft 309 kts 248°
2026-05-04 09:55 41.11044 -8.09129 10378 ft 297 kts 248°
2026-05-04 09:56 41.10203 -8.11543 10301 ft 285 kts 248°
2026-05-04 09:56 41.09384 -8.13888 10196 ft 274 kts 248°
2026-05-04 09:56 41.08594 -8.16153 10107 ft 267 kts 248°
2026-05-04 09:56 41.07817 -8.18387 9834 ft 267 kts 248°
2026-05-04 09:57 41.07037 -8.20621 9508 ft 266 kts 248°
2026-05-04 09:57 41.06263 -8.22841 9219 ft 264 kts 248°
2026-05-04 09:57 41.05489 -8.25046 8910 ft 262 kts 248°
2026-05-04 09:57 41.04724 -8.27232 8626 ft 260 kts 248°
2026-05-04 09:58 41.03972 -8.29374 8344 ft 259 kts 248°
2026-05-04 09:58 41.03237 -8.31554 8129 ft 256 kts 251°
2026-05-04 09:58 41.02678 -8.33748 8033 ft 247 kts 257°
2026-05-04 10:00 41.00173 -8.49184 5740 ft 245 kts 261°
2026-05-04 10:00 40.99841 -8.51395 5407 ft 245 kts 261°
2026-05-04 10:02 41.03689 -8.62663 3334 ft 229 kts 348°
2026-05-04 10:04 41.13440 -8.65170 2219 ft 179 kts 348°
2026-05-04 10:04 41.14632 -8.65483 1971 ft 169 kts 347°
2026-05-04 10:04 41.15750 -8.65775 1740 ft 158 kts 348°
2026-05-04 10:04 41.16800 -8.66047 1552 ft 149 kts 347°
2026-05-04 10:05 41.17792 -8.66309 1353 ft 143 kts 347°
2026-05-04 10:05 41.18750 -8.66560 1175 ft 140 kts 347°
2026-05-04 10:05 41.19703 -8.66810 998 ft 140 kts 348°
2026-05-04 10:05 41.20655 -8.67062 813 ft 140 kts 348°
2026-05-04 10:06 41.21596 -8.67299 664 ft 141 kts 348°
2026-05-04 10:06 41.22552 -8.67529 429 ft 140 kts 346°
2026-05-04 10:06 41.23499 -8.67782 271 ft 139 kts 348°
2026-05-04 10:08 41.25184 -8.67994 191 ft 11 kts 168°
2026-05-04 10:08 41.25108 -8.67972 201 ft 11 kts 168°
2026-05-04 10:08 41.25026 -8.67949 204 ft 13 kts 168°
2026-05-04 10:08 41.24958 -8.67930 210 ft 4 kts 168°
2026-05-04 10:09 41.24916 -8.67918 215 ft 8 kts 166°
2026-05-04 10:09 41.24847 -8.67884 214 ft 13 kts 155°
2026-05-04 10:09 41.24757 -8.67833 220 ft 14 kts 162°
2026-05-04 10:09 41.24657 -8.67801 221 ft 15 kts 167°
2026-05-04 10:10 41.24554 -8.67770 225 ft 15 kts 168°
2026-05-04 10:10 41.24449 -8.67743 234 ft 15 kts 169°
2026-05-04 10:10 41.24342 -8.67712 237 ft 16 kts 160°
2026-05-04 10:10 41.24261 -8.67625 243 ft 15 kts 128°
2026-05-04 10:11 41.24192 -8.67520 248 ft 16 kts 138°
2026-05-04 10:11 41.24095 -8.67444 250 ft 12 kts 161°
2026-05-04 10:11 41.24040 -8.67421 251 ft 8 kts 151°
2026-05-04 10:11 41.24023 -8.67379 252 ft 4 kts 106°
2026-05-04 10:12 41.24021 -8.67347 253 ft 3 kts 92°
2026-05-04 10:12 41.24021 -8.67337 253 ft 0 kts 92°